Location: Saluda
(35.2377°N, 82.3468°W)
Time: 15:49:22
(UTC+00:00)

Transit 2A - Pass Details

Date: 08 October 2022
Orbit: 598 x 959 km, 66.7° (Epoch: 06 December)

Event Time Altitude Azimuth Distance (km) Brightness Sun altitude
Rises 11:29:05 0° 344° (NNW) 3,000 8.8 -1.0°
Reaches altitude 10° 11:31:32 10° 355° (N) 2,134 8.2 -0.5°
Maximum altitude 11:35:51 31° 58° (ENE) 1,262 7.9 0.4°
Drops below altitude 10° 11:40:32 10° 120° (ESE) 2,331 10.0 1.3°
Sets 11:43:19 0° 130° (SE) 3,324 10.5 1.9°
